Home   Weather   Luxembourg   Past weeks
Flag for Luxembourg

Past Weather in Luxembourg, Luxembourg — Yesterday and Last 2 Weeks

Now
72 °F

Passing clouds.


Feels Like: 77 °F
Forecast: 71 / 51 °F
Wind: 9 mph from Northeast

Location: Luxembourg Airport

Current Time: Apr 9, 2020 at 1:43:34 pm

Latest Report: Apr 9, 2020 at 12:50 pm


Visibility: N/A

Pressure: 30.24 "Hg

Humidity: 33%

Dew Point: 41 °F

Location of LuxembourgLocation

Past Weather in Luxembourg — Graph

°F

Luxembourg Temperature Yesterday

Maximum temperature yesterday: 72 °F (at 3:20 pm)
Minimum temperature yesterday: 48 °F (at 7:20 am)
Average temperature yesterday: 62 °F

High & Low Weather Summary for the Past Weeks

 TemperatureHumidityPressure
High72 °F (Apr 7, 2:50 pm)87% (Mar 31, 7:20 am)30.42 "Hg (Mar 31, 7:20 am)
Low28 °F (Mar 30, 5:20 am)18% (Mar 25, 5:20 pm)29.86 "Hg (Apr 2, 4:20 pm)
Average48 °F49%30.15 "Hg
* Reported Mar 25 11:20 am — Apr 9 12:20 pm, Luxembourg. Weather by CustomWeather, © 2020

Note: Actual official high and low records may vary slightly from our data, if they occured in-between our weather recording intervals... More about our weather records

Luxembourg Weather History for the Previous 24 Hours

Scroll right to see more
 ConditionsComfort  
Time TempWeatherWind HumidityBarometerVisibility
12:20 pm
Thu, Apr 9
70 °FPassing clouds.8 mph33%30.27 "HgN/A
11:50 am68 °FPassing clouds.3 mph35%30.27 "HgN/A
11:20 am66 °FSunny.2 mph46%30.27 "Hg10 mi
10:50 am64 °FSunny.2 mph46%30.24 "Hg10 mi
10:20 am61 °FSunny.1 mph52%30.24 "Hg10 mi
9:50 am63 °FSunny.2 mph45%30.24 "Hg10 mi
9:20 am55 °FSunny.1 mph59%30.24 "Hg10 mi
8:50 am55 °FSunny.1 mph55%30.24 "Hg10 mi
8:20 am54 °FPassing clouds.3 mph58%30.21 "HgN/A
7:50 am57 °FSunny.6 mph48%30.21 "Hg10 mi
7:20 am55 °FSunny.5 mph51%30.21 "Hg10 mi
6:50 am55 °FClear.5 mph51%30.21 "Hg10 mi
6:20 am55 °FPassing clouds.5 mph47%30.21 "HgN/A
5:50 am55 °FClear.3 mph47%30.21 "Hg10 mi
5:20 am57 °FClear.1 mph44%30.21 "Hg10 mi
4:50 am55 °FClear.2 mph47%30.21 "Hg10 mi
4:20 am55 °FRefreshingly cool.No wind44%30.21 "HgN/A
3:20 am59 °FRefreshingly cool.No wind39%30.21 "HgN/A
2:50 am59 °FOvercast.2 mph42%30.21 "HgN/A
2:20 am57 °FPassing clouds.1 mph44%30.21 "HgN/A
1:50 am55 °FPassing clouds.3 mph51%30.21 "HgN/A
1:20 am59 °FPassing clouds.6 mph39%30.21 "HgN/A
12:50 am57 °FClear.8 mph44%30.21 "Hg10 mi
12:20 am61 °FClear.7 mph39%30.21 "Hg10 mi
11:50 pm
Wed, Apr 8
59 °FClear.6 mph42%30.21 "Hg10 mi
11:20 pm59 °FClear.5 mph42%30.21 "Hg10 mi
10:50 pm61 °FPassing clouds.6 mph36%30.21 "HgN/A
10:20 pm63 °FPassing clouds.5 mph34%30.21 "HgN/A
9:50 pm63 °FClear.5 mph34%30.21 "Hg10 mi
9:20 pm64 °FClear.5 mph32%30.21 "Hg10 mi
8:50 pm64 °FClear.3 mph32%30.21 "Hg10 mi
8:20 pm66 °FClear.3 mph32%30.21 "Hg10 mi
7:50 pm68 °FSunny.5 mph30%30.21 "Hg10 mi
7:20 pm68 °FPassing clouds.5 mph30%30.21 "HgN/A
6:50 pm70 °FPassing clouds.5 mph29%30.21 "HgN/A
6:20 pm72 °FPassing clouds.6 mph27%30.21 "HgN/A
5:50 pm70 °FSunny.5 mph31%30.21 "Hg10 mi
5:20 pm72 °FSunny.7 mph27%30.21 "Hg10 mi
4:50 pm70 °FPassing clouds.7 mph29%30.21 "HgN/A
4:20 pm72 °FPassing clouds.5 mph31%30.24 "HgN/A
3:20 pm72 °FPassing clouds.7 mph29%30.24 "HgN/A
2:50 pm70 °FPassing clouds.7 mph31%30.24 "HgN/A
2:20 pm70 °FPassing clouds.7 mph29%30.24 "HgN/A
1:50 pm70 °FPassing clouds.8 mph31%30.27 "HgN/A
1:20 pm68 °FPassing clouds.6 mph35%30.27 "HgN/A
Weather by CustomWeather, © 2020

See weather overview

Advertising